| time (UTC) | temp F | wind direction | speed MPH | gust MPH | rain 1hr in | rain 24hr in | rain mn in | humidity % | barometer mb |
| 20260905062636 | 84 | 206 | 1.0 | 6.0 | 0.00 | 0.00 | 0.00 | 71 | 1014.1 |
| 20260905062135 | 84 | 117 | 0.0 | 6.0 | 0.00 | 0.00 | 0.00 | 71 | 1014.1 |
| 20260905061619 | 84 | 291 | 4.0 | 6.0 | 0.00 | 0.00 | 0.00 | 71 | 1014.1 |
| 20260905061119 | 84 | 142 | 0.0 | 4.0 | 0.00 | 0.00 | 0.00 | 72 | 1014.1 |
| 20260905060646 | 84 | 250 | 0.0 | 3.0 | 0.00 | 0.00 | 0.00 | 72 | 1014.1 |
| 20260905060144 | 84 | 109 | 1.0 | 4.0 | 0.00 | 0.00 | 0.00 | 72 | 1014.1 |
| 20260905055629 | 84 | 185 | 1.0 | 4.0 | 0.00 | 0.00 | 0.00 | 73 | 1014.1 |
| 20260905055126 | 84 | 140 | 0.0 | 2.0 | 0.00 | 0.00 | 0.00 | 74 | 1014.1 |
| 20260905054633 | 84 | 140 | 0.0 | 3.0 | 0.00 | 0.00 | 0.00 | 74 | 1014.1 |
| 20260905054131 | 84 | 140 | 1.0 | 3.0 | 0.00 | 0.00 | 0.00 | 74 | 1014.1 |
| 20260905053616 | 84 | 174 | 0.0 | 2.0 | 0.00 | 0.00 | 0.00 | 74 | 1014.1 |
| 20260905053135 | 84 | 218 | 0.0 | 2.0 | 0.00 | 0.00 | 0.00 | 74 | 1014.0 |
| 20260905052621 | 84 | 179 | 2.0 | 3.0 | 0.00 | 0.00 | 0.00 | 74 | 1013.9 |
| 20260905052142 | 84 | 209 | 1.0 | 3.0 | 0.00 | 0.00 | 0.00 | 75 | 1013.9 |
| 20260905051626 | 84 | 196 | 1.0 | 3.0 | 0.00 | 0.00 | 0.00 | 74 | 1013.9 |
| 20260905051124 | 84 | 196 | 0.0 | 3.0 | 0.00 | 0.00 | 0.00 | 74 | 1013.9 |
| 20260905050630 | 84 | 196 | 1.0 | 3.0 | 0.00 | 0.00 | 0.00 | 74 | 1013.9 |
| 20260905050151 | 84 | 196 | 0.0 | 3.0 | 0.00 | 0.00 | 0.00 | 74 | 1013.8 |
| 20260905045625 | 85 | 196 | 1.0 | 3.0 | 0.00 | 0.00 | 0.00 | 74 | 1013.9 |
| 20260905045123 | 85 | 195 | 0.0 | 3.0 | 0.00 | 0.00 | 0.00 | 74 | 1013.7 |
| 20260905044626 | 85 | 260 | 0.0 | 1.0 | 0.00 | 0.00 | 0.00 | 74 | 1013.7 |
| 20260905044123 | 85 | 260 | 0.0 | 2.0 | 0.00 | 0.00 | 0.00 | 74 | 1013.6 |
| 20260905043627 | 85 | 260 | 0.0 | 6.0 | 0.00 | 0.00 | 0.00 | 73 | 1013.6 |
| 20260905043125 | 85 | 260 | 0.0 | 6.0 | 0.00 | 0.00 | 0.00 | 73 | 1013.6 |
| 20260905042629 | 86 | 184 | 1.0 | 4.0 | 0.00 | 0.00 | 0.00 | 73 | 1013.5 |
| 20260905042126 | 86 | 180 | 1.0 | 3.0 | 0.00 | 0.00 | 0.00 | 72 | 1013.5 |
| 20260905041632 | 86 | 180 | 0.0 | 3.0 | 0.00 | 0.00 | 0.00 | 72 | 1013.4 |
| 20260905041134 | 86 | 124 | 1.0 | 2.0 | 0.00 | 0.00 | 0.00 | 72 | 1013.5 |
| 20260905040621 | 86 | 124 | 0.0 | 4.0 | 0.00 | 0.00 | 0.00 | 72 | 1013.4 |
| 20260905040122 | 86 | 124 | 0.0 | 7.0 | 0.00 | 0.00 | 0.00 | 72 | 1013.4 |
| 20260905035631 | 86 | 197 | 1.0 | 4.0 | 0.00 | 0.00 | 0.00 | 72 | 1013.4 |
| 20260905035129 | 87 | 150 | 2.0 | 4.0 | 0.00 | 0.00 | 0.00 | 72 | 1013.4 |
| 20260905034632 | 87 | 178 | 1.0 | 4.0 | 0.00 | 0.00 | 0.00 | 72 | 1013.3 |
| 20260905034150 | 87 | 187 | 0.0 | 3.0 | 0.00 | 0.00 | 0.00 | 72 | 1013.3 |
| 20260905033633 | 87 | 240 | 0.0 | 3.0 | 0.00 | 0.00 | 0.00 | 72 | 1013.3 |
| 20260905033116 | 87 | 233 | 0.0 | 5.0 | 0.00 | 0.00 | 0.00 | 72 | 1013.2 |
| 20260905032623 | 87 | 233 | 3.0 | 5.0 | 0.00 | 0.00 | 0.00 | 71 | 1013.2 |
| 20260905032121 | 88 | 185 | 1.0 | 5.0 | 0.00 | 0.00 | 0.00 | 71 | 1013.2 |
| 20260905031645 | 88 | 269 | 0.0 | 5.0 | 0.00 | 0.00 | 0.00 | 71 | 1013.1 |
| 20260905031121 | 88 | 252 | 2.0 | 3.0 | 0.00 | 0.00 | 0.00 | 71 | 1013.1 |
| 20260905030624 | 88 | 252 | 0.0 | 3.0 | 0.00 | 0.00 | 0.00 | 70 | 1013.0 |
| 20260905030127 | 88 | 250 | 0.0 | 3.0 | 0.00 | 0.00 | 0.00 | 70 | 1013.0 |
| 20260905025632 | 88 | 229 | 1.0 | 3.0 | 0.00 | 0.00 | 0.00 | 69 | 1012.9 |
| 20260905025154 | 89 | 212 | 0.0 | 4.0 | 0.00 | 0.00 | 0.00 | 69 | 1012.8 |
| 20260905024617 | 89 | 175 | 0.0 | 4.0 | 0.00 | 0.00 | 0.00 | 69 | 1012.8 |
| 20260905024137 | 89 | 175 | 0.0 | 4.0 | 0.00 | 0.00 | 0.00 | 69 | 1012.8 |
| 20260905023623 | 89 | 185 | 1.0 | 4.0 | 0.00 | 0.00 | 0.00 | 69 | 1012.7 |
| 20260905023128 | 89 | 185 | 0.0 | 2.0 | 0.00 | 0.00 | 0.00 | 69 | 1012.8 |
| 20260905022616 | 89 | 160 | 0.0 | 2.0 | 0.00 | 0.00 | 0.00 | 68 | 1012.8 |
| 20260905022136 | 89 | 160 | 1.0 | 5.0 | 0.00 | 0.00 | 0.00 | 69 | 1012.8 |
| 20260905021639 | 89 | 160 | 0.0 | 5.0 | 0.00 | 0.00 | 0.00 | 69 | 1012.8 |
| 20260905021116 | 89 | 185 | 1.0 | 2.0 | 0.00 | 0.00 | 0.00 | 69 | 1012.8 |
| 20260905020628 | 89 | 131 | 1.0 | 2.0 | 0.00 | 0.00 | 0.00 | 70 | 1012.8 |
| 20260905020146 | 89 | 131 | 1.0 | 3.0 | 0.00 | 0.00 | 0.00 | 70 | 1012.8 |
| 20260905015629 | 89 | 199 | 2.0 | 3.0 | 0.00 | 0.00 | 0.00 | 70 | 1012.8 |
| 20260905015127 | 89 | 125 | 0.0 | 0.0 | 0.00 | 0.00 | 0.00 | 70 | 1012.6 |
| 20260905014633 | 89 | 125 | 0.0 | 0.0 | 0.00 | 0.00 | 0.00 | 70 | 1012.5 |
| 20260905014133 | 90 | 125 | 0.0 | 0.0 | 0.00 | 0.00 | 0.00 | 70 | 1012.5 |
| 20260905013615 | 90 | 125 | 0.0 | 0.0 | 0.00 | 0.00 | 0.00 | 69 | 1012.4 |
| 20260905013138 | 90 | 125 | 0.0 | 0.0 | 0.00 | 0.00 | 0.00 | 69 | 1012.3 |
| 20260905012619 | 91 | 125 | 0.0 | 0.0 | 0.00 | 0.00 | 0.00 | 68 | 1012.3 |
| 20260905012117 | 91 | 125 | 0.0 | 0.0 | 0.00 | 0.00 | 0.00 | 67 | 1012.3 |
| 20260905011620 | 91 | 125 | 0.0 | 1.0 | 0.00 | 0.00 | 0.00 | 67 | 1012.2 |
| 20260905011117 | 91 | 125 | 0.0 | 1.0 | 0.00 | 0.00 | 0.00 | 67 | 1012.2 |
| 20260905010621 | 92 | 125 | 1.0 | 1.0 | 0.00 | 0.00 | 0.00 | 66 | 1012.3 |
| 20260905010120 | 92 | 125 | 0.0 | 1.0 | 0.00 | 0.00 | 0.00 | 66 | 1012.2 |
| 20260905005624 | 92 | 125 | 0.0 | 2.0 | 0.00 | 0.00 | 0.00 | 65 | 1012.1 |
| 20260905005123 | 92 | 125 | 0.0 | 2.0 | 0.00 | 0.00 | 0.00 | 65 | 1012.1 |
| 20260905004627 | 93 | 125 | 0.0 | 1.0 | 0.00 | 0.00 | 0.00 | 65 | 1012.1 |
| 20260905004130 | 93 | 125 | 0.0 | 0.0 | 0.00 | 0.00 | 0.00 | 65 | 1012.1 |
| 20260905003617 | 93 | 125 | 0.0 | 2.0 | 0.00 | 0.00 | 0.00 | 65 | 1012.2 |
| 20260905003121 | 93 | 125 | 0.0 | 2.0 | 0.00 | 0.00 | 0.00 | 64 | 1012.1 |
| 20260905002624 | 94 | 125 | 0.0 | 2.0 | 0.00 | 0.00 | 0.00 | 63 | 1012.0 |
| 20260905002124 | 94 | 125 | 1.0 | 2.0 | 0.00 | 0.00 | 0.00 | 62 | 1012.0 |
| 20260905001632 | 94 | 136 | 1.0 | 2.0 | 0.00 | 0.00 | 0.00 | 62 | 1012.0 |
| 20260905001131 | 94 | 212 | 0.0 | 6.0 | 0.00 | 0.00 | 0.00 | 62 | 1012.0 |
| 20260905000617 | 95 | 200 | 2.0 | 4.0 | 0.00 | 0.00 | 0.00 | 61 | 1012.0 |
| 20260905000139 | 95 | 222 | 0.0 | 1.0 | 0.00 | 0.00 | 0.00 | 63 | 1012.0 |
| 20260904235646 | 95 | 222 | 0.0 | 2.0 | 0.00 | 0.00 | 0.00 | 62 | 1012.0 |
| 20260904235121 | 94 | 222 | 0.0 | 2.0 | 0.00 | 0.00 | 0.00 | 62 | 1012.0 |
| 20260904234623 | 94 | 222 | 0.0 | 2.0 | 0.00 | 0.00 | 0.00 | 62 | 1012.0 |
| 20260904234121 | 94 | 222 | 0.0 | 4.0 | 0.00 | 0.00 | 0.00 | 61 | 1012.0 |
| 20260904233623 | 94 | 221 | 2.0 | 5.0 | 0.00 | 0.00 | 0.00 | 61 | 1012.0 |
| 20260904233124 | 94 | 219 | 1.0 | 5.0 | 0.00 | 0.00 | 0.00 | 60 | 1012.1 |
| 20260904232633 | 95 | 246 | 2.0 | 5.0 | 0.00 | 0.00 | 0.00 | 60 | 1012.1 |
| 20260904232136 | 95 | 253 | 3.0 | 5.0 | 0.00 | 0.00 | 0.00 | 60 | 1012.1 |
| 20260904231625 | 96 | 233 | 2.0 | 5.0 | 0.00 | 0.00 | 0.00 | 59 | 1012.1 |
| 20260904231127 | 96 | 251 | 3.0 | 5.0 | 0.00 | 0.00 | 0.00 | 59 | 1012.2 |
| 20260904230615 | 96 | 212 | 3.0 | 5.0 | 0.00 | 0.00 | 0.00 | 59 | 1012.2 |
| 20260904230139 | 95 | 207 | 1.0 | 5.0 | 0.00 | 0.00 | 0.00 | 59 | 1012.2 |
| 20260904225625 | 95 | 204 | 3.0 | 5.0 | 0.00 | 0.00 | 0.00 | 58 | 1012.2 |
| 20260904225126 | 95 | 239 | 2.0 | 5.0 | 0.00 | 0.00 | 0.00 | 59 | 1012.2 |
| 20260904224633 | 95 | 246 | 3.0 | 5.0 | 0.00 | 0.00 | 0.00 | 59 | 1012.2 |
| 20260904224132 | 94 | 221 | 2.0 | 5.0 | 0.00 | 0.00 | 0.00 | 59 | 1012.1 |
| 20260904223636 | 95 | 227 | 2.0 | 5.0 | 0.00 | 0.00 | 0.00 | 58 | 1012.1 |
| 20260904223114 | 95 | 233 | 2.0 | 6.0 | 0.00 | 0.00 | 0.00 | 57 | 1012.1 |
| 20260904222642 | 95 | 268 | 4.0 | 8.0 | 0.00 | 0.00 | 0.00 | 57 | 1012.1 |
| 20260904222154 | 95 | 237 | 4.0 | 8.0 | 0.00 | 0.00 | 0.00 | 56 | 1012.2 |
| 20260904221636 | 95 | 241 | 3.0 | 5.0 | 0.00 | 0.00 | 0.00 | 56 | 1012.1 |
| 20260904221115 | 95 | 270 | 3.0 | 9.0 | 0.00 | 0.00 | 0.00 | 57 | 1012.1 |
| 20260904220622 | 95 | 256 | 2.0 | 9.0 | 0.00 | 0.00 | 0.00 | 56 | 1012.1 |
| 20260904220141 | 95 | 260 | 3.0 | 6.0 | 0.00 | 0.00 | 0.00 | 56 | 1012.1 |
| 20260904215626 | 96 | 262 | 3.0 | 7.0 | 0.00 | 0.00 | 0.00 | 55 | 1012.0 |
| 20260904215122 | 96 | 219 | 4.0 | 8.0 | 0.00 | 0.00 | 0.00 | 55 | 1012.1 |
| 20260904214647 | 96 | 207 | 2.0 | 8.0 | 0.00 | 0.00 | 0.00 | 56 | 1012.1 |
| 20260904214126 | 96 | 210 | 4.0 | 8.0 | 0.00 | 0.00 | 0.00 | 57 | 1012.1 |
| 20260904213629 | 96 | 181 | 5.0 | 8.0 | 0.00 | 0.00 | 0.00 | 56 | 1012.1 |
| 20260904213131 | 96 | 265 | 2.0 | 8.0 | 0.00 | 0.00 | 0.00 | 56 | 1012.0 |
| 20260904212635 | 97 | 236 | 3.0 | 9.0 | 0.00 | 0.00 | 0.00 | 56 | 1011.9 |
| 20260904212130 | 97 | 194 | 4.0 | 9.0 | 0.00 | 0.00 | 0.00 | 56 | 1011.9 |
| 20260904211633 | 97 | 182 | 3.0 | 9.0 | 0.00 | 0.00 | 0.00 | 57 | 1012.0 |
| 20260904211151 | 96 | 187 | 5.0 | 9.0 | 0.00 | 0.00 | 0.00 | 56 | 1012.0 |
| 20260904210617 | 97 | 287 | 4.0 | 9.0 | 0.00 | 0.00 | 0.00 | 55 | 1012.1 |
| 20260904210119 | 97 | 165 | 3.0 | 9.0 | 0.00 | 0.00 | 0.00 | 55 | 1012.0 |
| 20260904205622 | 96 | 219 | 4.0 | 9.0 | 0.00 | 0.00 | 0.00 | 55 | 1012.0 |
| 20260904205120 | 96 | 239 | 5.0 | 7.0 | 0.00 | 0.00 | 0.00 | 55 | 1012.0 |
| 20260904204644 | 96 | 211 | 2.0 | 9.0 | 0.00 | 0.00 | 0.00 | 56 | 1012.0 |
| 20260904204122 | 96 | 240 | 5.0 | 9.0 | 0.00 | 0.00 | 0.00 | 57 | 1012.1 |
| 20260904203626 | 96 | 253 | 4.0 | 8.0 | 0.00 | 0.00 | 0.00 | 56 | 1012.1 |
| 20260904203125 | 96 | 222 | 3.0 | 8.0 | 0.00 | 0.00 | 0.00 | 55 | 1012.1 |
| 20260904202633 | 96 | 202 | 2.0 | 7.0 | 0.00 | 0.00 | 0.00 | 55 | 1012.2 |
| 20260904202129 | 96 | 158 | 4.0 | 7.0 | 0.00 | 0.00 | 0.00 | 56 | 1012.2 |
| 20260904201619 | 96 | 202 | 2.0 | 7.0 | 0.00 | 0.00 | 0.00 | 57 | 1012.3 |
| 20260904201121 | 95 | 181 | 2.0 | 9.0 | 0.00 | 0.00 | 0.00 | 58 | 1012.3 |
| 20260904200625 | 95 | 210 | 7.0 | 9.0 | 0.00 | 0.00 | 0.00 | 57 | 1012.4 |
| 20260904200126 | 96 | 251 | 4.0 | 7.0 | 0.00 | 0.00 | 0.00 | 57 | 1012.4 |
| 20260904195630 | 96 | 259 | 4.0 | 8.0 | 0.00 | 0.00 | 0.00 | 57 | 1012.4 |
| 20260904195126 | 96 | 259 | 2.0 | 8.0 | 0.00 | 0.00 | 0.00 | 57 | 1012.4 |
| 20260904194630 | 95 | 250 | 2.0 | 7.0 | 0.00 | 0.00 | 0.00 | 58 | 1012.4 |
| 20260904194128 | 95 | 324 | 3.0 | 7.0 | 0.00 | 0.00 | 0.00 | 58 | 1012.5 |
| 20260904193631 | 95 | 266 | 3.0 | 7.0 | 0.00 | 0.00 | 0.00 | 59 | 1012.5 |
| 20260904193128 | 95 | 130 | 4.0 | 8.0 | 0.00 | 0.00 | 0.00 | 59 | 1012.5 |
| 20260904192635 | 94 | 126 | 3.0 | 8.0 | 0.00 | 0.00 | 0.00 | 59 | 1012.5 |
| 20260904192153 | 94 | 257 | 2.0 | 7.0 | 0.00 | 0.00 | 0.00 | 59 | 1012.6 |
| 20260904191642 | 94 | 262 | 2.0 | 7.0 | 0.00 | 0.00 | 0.00 | 59 | 1012.6 |
| 20260904191122 | 94 | 178 | 3.0 | 8.0 | 0.00 | 0.00 | 0.00 | 59 | 1012.6 |
| 20260904190629 | 94 | 139 | 3.0 | 8.0 | 0.00 | 0.00 | 0.00 | 59 | 1012.6 |
| 20260904190130 | 94 | 190 | 4.0 | 8.0 | 0.00 | 0.00 | 0.00 | 59 | 1012.6 |
| 20260904185617 | 94 | 152 | 2.0 | 6.0 | 0.00 | 0.00 | 0.00 | 61 | 1012.7 |
| 20260904185117 | 93 | 187 | 3.0 | 10.0 | 0.00 | 0.00 | 0.00 | 62 | 1012.7 |
| 20260904184625 | 93 | 181 | 3.0 | 10.0 | 0.00 | 0.00 | 0.00 | 61 | 1012.8 |
| 20260904184125 | 93 | 212 | 2.0 | 6.0 | 0.00 | 0.00 | 0.00 | 61 | 1012.8 |
| 20260904183647 | 93 | 194 | 5.0 | 6.0 | 0.00 | 0.00 | 0.00 | 61 | 1012.9 |
| 20260904183126 | 92 | 188 | 1.0 | 7.0 | 0.00 | 0.00 | 0.00 | 61 | 1012.9 |
| 20260904182630 | 92 | 295 | 3.0 | 8.0 | 0.00 | 0.00 | 0.00 | 61 | 1012.9 |
| 20260904182131 | 92 | 295 | 3.0 | 8.0 | 0.00 | 0.00 | 0.00 | 62 | 1012.9 |
| 20260904181616 | 91 | 183 | 2.0 | 9.0 | 0.00 | 0.00 | 0.00 | 62 | 1012.9 |
| 20260904181136 | 91 | 202 | 5.0 | 9.0 | 0.00 | 0.00 | 0.00 | 62 | 1013.0 |
| 20260904180644 | 90 | 141 | 1.0 | 6.0 | 0.00 | 0.00 | 0.00 | 65 | 1012.9 |
| 20260904180145 | 90 | 262 | 1.0 | 5.0 | 0.00 | 0.00 | 0.00 | 63 | 1012.9 |
| 20260904175631 | 90 | 223 | 2.0 | 8.0 | 0.00 | 0.00 | 0.00 | 64 | 1012.9 |
| 20260904175129 | 90 | 318 | 3.0 | 8.0 | 0.00 | 0.00 | 0.00 | 62 | 1013.0 |
| 20260904174633 | 91 | 300 | 3.0 | 7.0 | 0.00 | 0.00 | 0.00 | 63 | 1013.0 |
| 20260904174134 | 90 | 226 | 2.0 | 7.0 | 0.00 | 0.00 | 0.00 | 65 | 1013.0 |
| 20260904173635 | 90 | 271 | 4.0 | 7.0 | 0.00 | 0.00 | 0.00 | 65 | 1013.0 |
| 20260904173132 | 89 | 257 | 2.0 | 5.0 | 0.00 | 0.00 | 0.00 | 65 | 1013.0 |
| 20260904172635 | 90 | 285 | 3.0 | 5.0 | 0.00 | 0.00 | 0.00 | 64 | 1013.1 |
| 20260904172132 | 90 | 181 | 2.0 | 7.0 | 0.00 | 0.00 | 0.00 | 64 | 1013.0 |
| 20260904171657 | 89 | 285 | 2.0 | 7.0 | 0.00 | 0.00 | 0.00 | 65 | 1013.1 |
| 20260904171154 | 89 | 294 | 4.0 | 8.0 | 0.00 | 0.00 | 0.00 | 65 | 1013.0 |
| 20260904170621 | 89 | 232 | 5.0 | 8.0 | 0.00 | 0.00 | 0.00 | 65 | 1013.1 |
| 20260904170126 | 89 | 248 | 4.0 | 8.0 | 0.00 | 0.00 | 0.00 | 67 | 1013.0 |
| 20260904165631 | 88 | 124 | 3.0 | 8.0 | 0.00 | 0.00 | 0.00 | 66 | 1013.0 |
| 20260904165134 | 88 | 229 | 3.0 | 8.0 | 0.00 | 0.01 | 0.00 | 67 | 1013.0 |
| 20260904164638 | 88 | 282 | 4.0 | 8.0 | 0.00 | 0.01 | 0.00 | 66 | 1013.0 |
| 20260904164134 | 88 | 223 | 3.0 | 7.0 | 0.00 | 0.01 | 0.00 | 68 | 1013.0 |
| 20260904163637 | 88 | 216 | 2.0 | 7.0 | 0.00 | 0.01 | 0.00 | 68 | 1013.0 |
| 20260904163155 | 88 | 178 | 3.0 | 6.0 | 0.00 | 0.01 | 0.00 | 68 | 1012.0 |
| 20260904162618 | 88 | 245 | 3.0 | 7.0 | 0.00 | 0.01 | 0.00 | 68 | 1011.9 |
| 20260904162136 | 88 | 206 | 4.0 | 8.0 | 0.00 | 0.01 | 0.00 | 68 | 1011.9 |
| 20260904161619 | 87 | 211 | 2.0 | 8.0 | 0.00 | 0.01 | 0.00 | 69 | 1012.0 |
| 20260904161135 | 87 | 190 | 4.0 | 7.0 | 0.00 | 0.01 | 0.00 | 69 | 1012.1 |
| 20260904160619 | 87 | 289 | 3.0 | 7.0 | 0.00 | 0.01 | 0.00 | 70 | 1012.2 |
| 20260904160117 | 87 | 228 | 4.0 | 7.0 | 0.00 | 0.01 | 0.00 | 70 | 1012.2 |
| 20260904155623 | 86 | 246 | 2.0 | 10.0 | 0.00 | 0.01 | 0.00 | 71 | 1012.2 |
| 20260904155123 | 86 | 185 | 3.0 | 10.0 | 0.00 | 0.01 | 0.00 | 71 | 1012.2 |
| 20260904154627 | 86 | 204 | 4.0 | 8.0 | 0.00 | 0.01 | 0.00 | 71 | 1012.2 |
| 20260904154127 | 86 | 291 | 4.0 | 8.0 | 0.00 | 0.01 | 0.00 | 71 | 1012.2 |
| 20260904153632 | 86 | 175 | 3.0 | 7.0 | 0.00 | 0.01 | 0.00 | 71 | 1012.2 |
| 20260904153114 | 85 | 169 | 2.0 | 7.0 | 0.00 | 0.01 | 0.00 | 71 | 1012.2 |
| 20260904152624 | 85 | 286 | 5.0 | 7.0 | 0.00 | 0.01 | 0.00 | 72 | 1012.2 |
| 20260904152122 | 85 | 285 | 2.0 | 6.0 | 0.00 | 0.01 | 0.00 | 72 | 1012.1 |
| 20260904151630 | 85 | 306 | 3.0 | 6.0 | 0.00 | 0.01 | 0.00 | 73 | 1012.1 |
| 20260904151134 | 84 | 262 | 3.0 | 8.0 | 0.00 | 0.01 | 0.00 | 73 | 1012.2 |
| 20260904150635 | 84 | 228 | 4.0 | 8.0 | 0.00 | 0.01 | 0.00 | 73 | 1012.2 |
| 20260904150157 | 84 | 218 | 3.0 | 6.0 | 0.00 | 0.01 | 0.00 | 74 | 1012.2 |
| 20260904145618 | 83 | 210 | 3.0 | 8.0 | 0.00 | 0.01 | 0.00 | 74 | 1012.2 |
| 20260904145117 | 83 | 214 | 3.0 | 8.0 | 0.00 | 0.01 | 0.00 | 75 | 1012.2 |
| 20260904144658 | 83 | 245 | 2.0 | 5.0 | 0.00 | 0.01 | 0.00 | 75 | 1012.3 |
| 20260904144118 | 82 | 189 | 1.0 | 5.0 | 0.00 | 0.01 | 0.00 | 76 | 1012.2 |
| 20260904143623 | 82 | 284 | 3.0 | 5.0 | 0.00 | 0.01 | 0.00 | 76 | 1012.1 |
| 20260904143119 | 82 | 202 | 2.0 | 5.0 | 0.00 | 0.01 | 0.00 | 77 | 1012.2 |
| 20260904142623 | 81 | 225 | 3.0 | 5.0 | 0.00 | 0.01 | 0.00 | 77 | 1012.1 |
| 20260904142120 | 81 | 150 | 1.0 | 6.0 | 0.00 | 0.01 | 0.00 | 77 | 1012.2 |
| 20260904141625 | 81 | 204 | 3.0 | 6.0 | 0.00 | 0.01 | 0.00 | 77 | 1012.1 |
| 20260904141126 | 81 | 254 | 1.0 | 6.0 | 0.00 | 0.01 | 0.00 | 77 | 1012.2 |
| 20260904140629 | 81 | 216 | 1.0 | 5.0 | 0.00 | 0.01 | 0.00 | 78 | 1012.3 |
| 20260904140118 | 81 | 237 | 3.0 | 5.0 | 0.00 | 0.01 | 0.00 | 78 | 1012.3 |
| 20260904135629 | 81 | 162 | 2.0 | 5.0 | 0.00 | 0.01 | 0.00 | 78 | 1012.3 |
| 20260904135126 | 80 | 223 | 2.0 | 5.0 | 0.00 | 0.01 | 0.00 | 78 | 1012.2 |
| 20260904134631 | 80 | 187 | 1.0 | 5.0 | 0.00 | 0.01 | 0.00 | 78 | 1012.2 |
| 20260904134130 | 80 | 230 | 2.0 | 5.0 | 0.00 | 0.01 | 0.00 | 78 | 1012.2 |
| 20260904133634 | 80 | 244 | 2.0 | 5.0 | 0.00 | 0.01 | 0.00 | 78 | 1012.1 |
| 20260904133126 | 80 | 150 | 2.0 | 6.0 | 0.00 | 0.01 | 0.00 | 78 | 1012.1 |
| 20260904132629 | 80 | 189 | 3.0 | 6.0 | 0.00 | 0.01 | 0.00 | 79 | 1012.0 |
| 20260904132128 | 79 | 215 | 2.0 | 3.0 | 0.00 | 0.01 | 0.00 | 79 | 1011.9 |
| 20260904131631 | 79 | 196 | 1.0 | 5.0 | 0.00 | 0.01 | 0.00 | 79 | 1011.8 |
| 20260904131129 | 79 | 192 | 1.0 | 7.0 | 0.00 | 0.01 | 0.00 | 80 | 1011.7 |
| 20260904130632 | 79 | 245 | 2.0 | 6.0 | 0.00 | 0.01 | 0.00 | 80 | 1011.7 |
| 20260904130136 | 79 | 239 | 2.0 | 6.0 | 0.00 | 0.01 | 0.00 | 80 | 1011.7 |
| 20260904125640 | 78 | 231 | 1.0 | 3.0 | 0.00 | 0.01 | 0.00 | 81 | 1011.6 |
| 20260904125118 | 78 | 223 | 0.0 | 3.0 | 0.00 | 0.01 | 0.00 | 81 | 1011.5 |
| 20260904124622 | 78 | 264 | 1.0 | 3.0 | 0.00 | 0.01 | 0.00 | 81 | 1011.5 |
| 20260904124142 | 78 | 222 | 0.0 | 4.0 | 0.00 | 0.01 | 0.00 | 81 | 1011.4 |
| 20260904123626 | 78 | 175 | 1.0 | 4.0 | 0.00 | 0.01 | 0.00 | 80 | 1011.4 |
| 20260904123127 | 78 | 196 | 0.0 | 3.0 | 0.00 | 0.01 | 0.00 | 80 | 1011.3 |
| 20260904122652 | 78 | 220 | 2.0 | 5.0 | 0.00 | 0.01 | 0.00 | 80 | 1011.3 |
| 20260904122131 | 78 | 216 | 0.0 | 4.0 | 0.00 | 0.01 | 0.00 | 80 | 1011.3 |
| 20260904121634 | 79 | 188 | 2.0 | 4.0 | 0.00 | 0.01 | 0.00 | 80 | 1011.3 |
| 20260904121131 | 79 | 205 | 1.0 | 4.0 | 0.00 | 0.01 | 0.00 | 79 | 1011.2 |
| 20260904120620 | 79 | 222 | 2.0 | 3.0 | 0.00 | 0.01 | 0.00 | 79 | 1011.2 |
| 20260904120121 | 79 | 222 | 0.0 | 3.0 | 0.00 | 0.01 | 0.00 | 79 | 1011.2 |
| 20260904115646 | 79 | 203 | 0.0 | 4.0 | 0.00 | 0.01 | 0.00 | 78 | 1011.2 |
| 20260904115122 | 79 | 198 | 0.0 | 5.0 | 0.00 | 0.01 | 0.00 | 78 | 1011.2 |
| 20260904114644 | 79 | 221 | 2.0 | 5.0 | 0.00 | 0.01 | 0.00 | 78 | 1011.2 |
| 20260904114122 | 80 | 200 | 0.0 | 4.0 | 0.00 | 0.01 | 0.00 | 77 | 1011.1 |
| 20260904113645 | 80 | 245 | 2.0 | 4.0 | 0.00 | 0.01 | 0.00 | 77 | 1011.1 |
| 20260904113123 | 80 | 243 | 1.0 | 6.0 | 0.00 | 0.01 | 0.00 | 77 | 1011.1 |
| 20260904112625 | 80 | 243 | 1.0 | 6.0 | 0.00 | 0.01 | 0.00 | 76 | 1011.1 |
| 20260904112142 | 80 | 246 | 2.0 | 6.0 | 0.00 | 0.01 | 0.00 | 76 | 1011.1 |
| 20260904111627 | 80 | 235 | 3.0 | 6.0 | 0.00 | 0.01 | 0.00 | 76 | 1011.1 |
| 20260904111147 | 80 | 247 | 3.0 | 6.0 | 0.00 | 0.01 | 0.00 | 75 | 1011.1 |
| 20260904110627 | 80 | 309 | 2.0 | 6.0 | 0.00 | 0.01 | 0.00 | 75 | 1011.1 |
| 20260904110127 | 81 | 225 | 2.0 | 6.0 | 0.00 | 0.01 | 0.00 | 75 | 1011.1 |
| 20260904105631 | 81 | 293 | 3.0 | 6.0 | 0.00 | 0.01 | 0.00 | 75 | 1011.1 |
| 20260904105129 | 81 | 194 | 1.0 | 7.0 | 0.00 | 0.01 | 0.00 | 75 | 1011.0 |
| 20260904104635 | 81 | 232 | 2.0 | 7.0 | 0.00 | 0.01 | 0.00 | 74 | 1010.9 |
| 20260904104133 | 81 | 203 | 2.0 | 6.0 | 0.00 | 0.01 | 0.00 | 74 | 1010.9 |
| 20260904103640 | 81 | 197 | 1.0 | 8.0 | 0.00 | 0.01 | 0.00 | 74 | 1011.0 |
| 20260904103120 | 81 | 204 | 2.0 | 8.0 | 0.00 | 0.01 | 0.00 | 74 | 1010.9 |
| 20260904102630 | 81 | 269 | 4.0 | 8.0 | 0.00 | 0.01 | 0.00 | 74 | 1010.9 |
| 20260904102129 | 81 | 165 | 3.0 | 8.0 | 0.00 | 0.01 | 0.00 | 74 | 1011.0 |
| 20260904101652 | 81 | 270 | 2.0 | 8.0 | 0.00 | 0.01 | 0.00 | 74 | 1011.0 |
| 20260904101129 | 81 | 196 | 1.0 | 8.0 | 0.00 | 0.01 | 0.00 | 74 | 1011.0 |
| 20260904100633 | 81 | 275 | 2.0 | 7.0 | 0.00 | 0.01 | 0.00 | 73 | 1011.0 |
| 20260904100132 | 81 | 175 | 2.0 | 7.0 | 0.00 | 0.01 | 0.00 | 73 | 1011.0 |
| 20260904095616 | 81 | 204 | 1.0 | 5.0 | 0.00 | 0.01 | 0.00 | 73 | 1011.0 |
| 20260904095134 | 81 | 235 | 3.0 | 5.0 | 0.00 | 0.01 | 0.00 | 73 | 1010.9 |
| 20260904094622 | 82 | 237 | 2.0 | 7.0 | 0.00 | 0.01 | 0.00 | 73 | 1010.9 |
| 20260904094119 | 82 | 280 | 4.0 | 7.0 | 0.00 | 0.01 | 0.00 | 73 | 1010.8 |
| 20260904093642 | 82 | 187 | 3.0 | 6.0 | 0.00 | 0.01 | 0.00 | 73 | 1010.7 |
| 20260904093120 | 81 | 208 | 1.0 | 6.0 | 0.00 | 0.01 | 0.00 | 73 | 1010.7 |
| 20260904092625 | 82 | 220 | 2.0 | 7.0 | 0.00 | 0.01 | 0.00 | 73 | 1010.7 |
| 20260904092131 | 82 | 197 | 5.0 | 8.0 | 0.00 | 0.01 | 0.00 | 73 | 1010.6 |
| 20260904091616 | 81 | 231 | 5.0 | 8.0 | 0.00 | 0.01 | 0.00 | 73 | 1010.5 |
| 20260904091134 | 81 | 209 | 0.0 | 6.0 | 0.00 | 0.01 | 0.00 | 73 | 1010.5 |
| 20260904090617 | 81 | 235 | 1.0 | 10.0 | 0.00 | 0.01 | 0.00 | 73 | 1010.6 |
| 20260904090116 | 81 | 182 | 1.0 | 10.0 | 0.00 | 0.01 | 0.00 | 72 | 1010.5 |
| 20260904085623 | 81 | 236 | 3.0 | 10.0 | 0.00 | 0.01 | 0.00 | 72 | 1010.5 |
| 20260904085121 | 81 | 197 | 3.0 | 7.0 | 0.00 | 0.01 | 0.00 | 72 | 1010.5 |
| 20260904084628 | 81 | 274 | 2.0 | 10.0 | 0.00 | 0.01 | 0.00 | 72 | 1010.5 |
| 20260904084126 | 81 | 189 | 2.0 | 10.0 | 0.00 | 0.01 | 0.00 | 72 | 1010.5 |
| 20260904083630 | 81 | 189 | 2.0 | 7.0 | 0.00 | 0.01 | 0.00 | 72 | 1010.4 |
| 20260904083132 | 81 | 272 | 2.0 | 7.0 | 0.00 | 0.01 | 0.00 | 72 | 1010.4 |
| 20260904082656 | 81 | 274 | 4.0 | 7.0 | 0.00 | 0.01 | 0.00 | 72 | 1010.4 |
| 20260904082131 | 81 | 251 | 3.0 | 8.0 | 0.00 | 0.01 | 0.00 | 72 | 1010.4 |
| 20260904081615 | 81 | 250 | 3.0 | 9.0 | 0.00 | 0.01 | 0.00 | 72 | 1010.4 |
| 20260904081116 | 81 | 219 | 2.0 | 10.0 | 0.00 | 0.01 | 0.00 | 71 | 1010.3 |
| 20260904080622 | 81 | 128 | 4.0 | 10.0 | 0.00 | 0.01 | 0.00 | 71 | 1010.3 |
| 20260904080146 | 81 | 214 | 5.0 | 9.0 | 0.00 | 0.01 | 0.00 | 71 | 1010.4 |
| 20260904075630 | 81 | 250 | 3.0 | 9.0 | 0.00 | 0.01 | 0.00 | 71 | 1010.4 |
| 20260904075128 | 81 | 186 | 3.0 | 7.0 | 0.00 | 0.01 | 0.00 | 71 | 1010.3 |
| 20260904074632 | 81 | 246 | 2.0 | 6.0 | 0.00 | 0.01 | 0.00 | 71 | 1010.3 |
| 20260904074135 | 81 | 240 | 3.0 | 7.0 | 0.00 | 0.01 | 0.00 | 71 | 1010.4 |
| 20260904073623 | 81 | 210 | 4.0 | 7.0 | 0.00 | 0.01 | 0.00 | 71 | 1010.3 |
| 20260904073122 | 82 | 183 | 4.0 | 7.0 | 0.00 | 0.01 | 0.00 | 70 | 1010.4 |
| 20260904072629 | 82 | 217 | 4.0 | 8.0 | 0.00 | 0.01 | 0.00 | 70 | 1010.4 |
| 20260904072128 | 82 | 157 | 3.0 | 8.0 | 0.00 | 0.01 | 0.00 | 70 | 1010.3 |
| 20260904071619 | 82 | 218 | 1.0 | 12.0 | 0.00 | 0.01 | 0.00 | 70 | 1010.4 |
| 20260904071119 | 82 | 208 | 3.0 | 12.0 | 0.00 | 0.01 | 0.00 | 69 | 1010.4 |
| 20260904070623 | 82 | 298 | 2.0 | 11.0 | 0.00 | 0.01 | 0.00 | 69 | 1010.3 |
| 20260904070122 | 82 | 189 | 4.0 | 11.0 | 0.00 | 0.01 | 0.00 | 69 | 1010.4 |
| 20260904065626 | 82 | 169 | 3.0 | 8.0 | 0.00 | 0.01 | 0.00 | 69 | 1010.5 |
| 20260904065123 | 83 | 227 | 4.0 | 8.0 | 0.00 | 0.01 | 0.00 | 68 | 1010.4 |
| 20260904064626 | 83 | 175 | 2.0 | 8.0 | 0.00 | 0.01 | 0.00 | 68 | 1010.4 |
| 20260904064124 | 83 | 233 | 3.0 | 9.0 | 0.00 | 0.01 | 0.00 | 68 | 1010.5 |
| 20260904063627 | 83 | 260 | 4.0 | 12.0 | 0.00 | 0.01 | 0.00 | 67 | 1010.4 |
| 20260904063124 | 83 | 163 | 5.0 | 12.0 | 0.00 | 0.01 | 0.00 | 67 | 1010.4 |